Погода в Медвежьем

Россия / Орловская область     52°39′45″N   37°38′14″E
темп.,
°C
ветер,
м/с
пор.,
м/с
влажн.,
%
обл.,
%
осадки,
мм/ч
давл.,
гПа
погр.,
м
3 марта, ср
ср300:00−2сз6149468 0.1 1013465
03:00−1сз7139382 0.3 1014733
06:00−2ссз7139089 0.1 1015781
09:00−5ссз6139193 0.1 1018569
12:00−3сз6108549 0.0 1019830
15:00−1зсз5108625 0.0 1019726
18:00−3з4109120 0.0 1018267
21:00−3з5129146 0.0 1018356
4 марта, чт
чт400:00−2зсз61190100 0.1 1015729
03:00−2зюз6139199 0.1 1014416
06:00−2зюз7149180 0.1 1012415
09:00−2зюз8178857 0.1 1010469
12:000зюз8158265 0.0 1007732
15:00+1зюз7139682 0.0 1006764
18:00+1зюз61394100 0.0 1003679
21:00+1зюз61396100 0.1 1002475
5 марта, пт
пт500:00+1з61198100 1.4 1001443
03:00−1зсз51096100 1.8 1002447
06:00−2ссз4795100 0.2 1004365
09:00−4с369498 0.3 1007293
12:00−3с349085 0.0 1009396
15:00−2ссз238892 0.0 1011493
18:00−5сз1191100 0.0 101121
21:00−5сз2291100 0.0 101421
6 марта, сб
сб600:00−7с3492100 0.0 101590
03:00−9с349177 0.0 101661
06:00−10с22884 0.0 101624
09:00−8сз12902 0.0 101658
12:00−6зсз12820 0.0 1016265
15:00−5ююз117930 0.0 1016347
18:00−6ссв119239 0.1 101725
21:00−8ссз5109068 0.9 1020382
7 марта, вс
вс700:00−12зсз349128 0.0 102070
03:00−12зюз488714 0.0 1019148
06:00−10юз613870 0.0 1017339
09:00−7юз9177946 0.0 1014672
12:00−4зюз111778100 0.0 10101088
15:00−3зюз111982100 0.0 10061215
18:00−2зюз112081100 0.1 10021253
21:00−3з101889100 0.3 10031001